Tarawa Terrace, NC

12:14 AM EDT on September 26, 2016 (GMT -0400)
New River Marine Corps Air Station

Weather History for KNCA - March, 2013

Change the Weather History Date:

Friday, March 8, 2013

  Actual Average Record
Temperature  
Mean Temperature 45 °F -  
Max Temperature 55 °F 61 °F 80 °F (2009)
Min Temperature 35 °F 39 °F 26 °F (1999)
Degree Days  
Heating Degree Days 20    
Moisture  
Dew Point 24 °F    
Average Humidity 44    
Maximum Humidity 64    
Minimum Humidity 27    
Precipitation  
Precipitation 0.00 in - - ()
Sea Level Pressure  
Sea Level Pressure 30.19 in    
Wind  
Wind Speed 12 mph (NNW)    
Max Wind Speed 22 mph    
Max Gust Speed 34 mph    
Visibility 10 miles    
Events      
Averages and records for this station are not official NWS values.
T = Trace of Precipitation, MM = Missing Value Source: NWS Daily Summary

Daily Weather History Graph

Daily Weather History Graph

Search for Another Location

Airport or City:

Trip Planner

Search our weather history database for the weather conditions in past years. The results will help you decide how hot, cold, wet, or windy it might be!

Date:

Astronomy

Mar. 08, 2013 Rise Set
Actual Time 6:29 AM EST 6:11 PM EST
Civil Twilight 6:04 AM EST 6:37 PM EST
Nautical Twilight 5:35 AM EST 7:06 PM EST
Astronomical Twilight 5:05 AM EST 7:35 PM EST
Moon 4:05 AM EST (3/8) 3:10 PM EST (3/8)
Length of Visible Light 12h 32m
Length of Day
11h 42m
Waning Crescent, 12% of the Moon is Illuminated
Mar 8
Waning Crescent
Mar 11
New
Mar 19
First Quarter
Mar 27
Full
Apr 3
Last Quarter

Hourly Weather History & Observations

Time (EST) Temp. Windchill Dew Point Humidity Pressure Visibility Wind Dir Wind Speed Gust Speed Precip Events Conditions
12:56 AM 39.9 °F 33.9 °F 25.0 °F 55% 30.20 in 10.0 mi NNW 9.2 mph - N/A   Clear
1:56 AM 39.9 °F 33.4 °F 24.1 °F 53% 30.19 in 10.0 mi NNW 10.4 mph - N/A   Clear
2:56 AM 39.0 °F 31.4 °F 24.1 °F 55% 30.18 in 10.0 mi NW 12.7 mph - N/A   Clear
3:56 AM 37.0 °F 29.3 °F 24.1 °F 59% 30.18 in 10.0 mi NW 11.5 mph - N/A   Clear
4:56 AM 36.0 °F 28.5 °F 24.1 °F 62% 30.19 in 10.0 mi NW 10.4 mph - N/A   Clear
5:56 AM 35.1 °F 27.4 °F 24.1 °F 64% 30.21 in 10.0 mi NW 10.4 mph - N/A   Clear
6:56 AM 35.1 °F 28.6 °F 24.1 °F 64% 30.22 in 10.0 mi WNW 8.1 mph - N/A   Clear
7:56 AM 39.0 °F 31.8 °F 25.0 °F 57% 30.24 in 10.0 mi NNW 11.5 mph - N/A   Clear
8:56 AM 43.0 °F 36.0 °F 25.0 °F 49% 30.24 in 10.0 mi NNW 13.8 mph - N/A   Clear
9:56 AM 46.0 °F 38.8 °F 24.1 °F 42% 30.22 in 10.0 mi North 18.4 mph 25.3 mph N/A   Clear
10:56 AM 48.9 °F - 23.0 °F 36% 30.21 in 10.0 mi NNW 18.4 mph 28.8 mph N/A   Scattered Clouds
11:56 AM 51.1 °F - 21.9 °F 32% 30.19 in 10.0 mi NW 21.9 mph 34.5 mph N/A   Clear
12:56 PM 53.1 °F - 19.9 °F 27% 30.15 in 10.0 mi NNW 20.7 mph 33.4 mph N/A   Clear
1:56 PM 54.0 °F - 21.9 °F 29% 30.13 in 10.0 mi NW 19.6 mph 25.3 mph N/A   Clear
2:56 PM 55.0 °F - 21.0 °F 27% 30.12 in 8.0 mi North 21.9 mph 26.5 mph N/A   Clear
3:56 PM 55.0 °F - 21.0 °F 27% 30.12 in 9.0 mi NNW 20.7 mph 26.5 mph N/A   Clear
4:56 PM 55.0 °F - 21.9 °F 28% 30.13 in 10.0 mi NW 15.0 mph 24.2 mph N/A   Clear
5:56 PM 53.1 °F - 21.9 °F 30% 30.16 in 10.0 mi NNW 13.8 mph - N/A   Clear
6:56 PM 48.0 °F - 23.0 °F 37% 30.18 in 10.0 mi NW 6.9 mph - N/A   Clear
7:56 PM 46.9 °F - 24.1 °F 41% 30.19 in 10.0 mi NNW 5.8 mph - N/A   Clear
8:56 PM 45.0 °F 41.2 °F 25.0 °F 46% 30.21 in 10.0 mi NNW 6.9 mph - N/A   Clear
9:56 PM 46.0 °F 41.9 °F 25.0 °F 44% 30.23 in 10.0 mi NNW 8.1 mph - N/A   Clear
10:56 PM 44.1 °F 39.5 °F 26.1 °F 49% 30.25 in 10.0 mi NNW 8.1 mph - N/A   Clear
11:56 PM 42.1 °F 37.1 °F 26.1 °F 53% 30.25 in 10.0 mi NNW 8.1 mph - N/A   Clear